Location: ???????
(55.2903°N, 39.1554°E)
Time: 08:39:19
(UTC+00:00)

Cosmos 192 - Pass Details

Date: 14 April 2024
Orbit: 699 x 710 km, 74.0° (Epoch: 19 May)

Event Time Altitude Azimuth Distance (km) Brightness Sun altitude
Rises 00:25:19 0° 330° (NNW) 3,097 7.8 -15.0°
Reaches altitude 10° 00:27:41 10° 326° (NW) 2,176 7.0 -14.7°
Maximum altitude 00:32:27 54° 250° (WSW) 857 4.4 -14.2°
Drops below altitude 10° 00:37:12 10° 174° (S) 2,165 6.5 -13.7°
Sets 00:39:32 0° 170° (S) 3,081 7.3 -13.5°
